• In Belarus
  • List of Countries
  • For 7 days
  • Water Temperature
  • Weather Map
  • Weather Widgets
  • user-avatar
    Login

    Hourly Weather Aktam

    Today, 22 September, Sunday

    Time Temperature Precipitation Wind Pressure Humidity
    00:00 +18°C° 0 mm 2 mps 665 mmHg 37%
    01:00 +18°C° 0 mm 2 mps 665 mmHg 37%
    02:00 +18°C° 0 mm 2 mps 665 mmHg 37%
    03:00 +17°C° 0 mm 2 mps 665 mmHg 38%
    04:00 +17°C° 0 mm 2 mps 665 mmHg 38%
    05:00 +16°C° 0 mm 2 mps 664 mmHg 39%
    06:00 +18°C° 0 mm 2 mps 665 mmHg 36%
    07:00 +21°C° 0 mm 2 mps 666 mmHg 33%
    08:00 +24°C° 0 mm 2 mps 666 mmHg 30%
    09:00 +25°C° 0 mm 2 mps 666 mmHg 27%
    10:00 +26°C° 0 mm 2 mps 666 mmHg 25%
    11:00 +28°C° 0 mm 2 mps 666 mmHg 23%
    12:00 +29°C° 0 mm 2 mps 666 mmHg 21%
    13:00 +30°C° 0 mm 2 mps 666 mmHg 20%
    14:00 +30°C° 0 mm 3 mps 666 mmHg 18%
    15:00 +29°C° 0 mm 2 mps 666 mmHg 22%
    16:00 +28°C° 0 mm 2 mps 665 mmHg 26%
    17:00 +27°C° 0 mm 1 mps 665 mmHg 29%
    18:00 +25°C° 0 mm 2 mps 665 mmHg 30%
    19:00 +24°C° 0 mm 2 mps 665 mmHg 30%
    20:00 +21°C° 0 mm 2 mps 665 mmHg 30%
    21:00 +21°C° 0 mm 2 mps 665 mmHg 29%
    22:00 +20°C° 0 mm 2 mps 665 mmHg 27%
    23:00 +20°C° 0 mm 2 mps 665 mmHg 25%

    Tomorrow, 23 September, Monday

    Time Temperature Precipitation Wind Pressure Humidity
    00:00 +19°C° 0 mm 2 mps 665 mmHg 26%
    01:00 +19°C° 0 mm 2 mps 664 mmHg 27%
    02:00 +18°C° 0 mm 2 mps 664 mmHg 28%
    03:00 +18°C° 0 mm 2 mps 665 mmHg 27%
    04:00 +18°C° 0 mm 2 mps 665 mmHg 27%
    05:00 +17°C° 0 mm 2 mps 666 mmHg 27%
    06:00 +20°C° 0 mm 2 mps 667 mmHg 25%
    07:00 +23°C° 0 mm 2 mps 668 mmHg 24%
    08:00 +25°C° 0 mm 2 mps 669 mmHg 22%
    09:00 +25°C° 0 mm 3 mps 669 mmHg 24%
    10:00 +25°C° 0 mm 5 mps 669 mmHg 27%
    11:00 +24°C° 0 mm 7 mps 669 mmHg 29%
    12:00 +26°C° 0 mm 6 mps 669 mmHg 31%
    13:00 +26°C° 0 mm 6 mps 669 mmHg 32%
    14:00 +26°C° 0 mm 6 mps 668 mmHg 34%
    15:00 +25°C° 0 mm 5 mps 668 mmHg 37%
    16:00 +23°C° 0 mm 4 mps 668 mmHg 41%
    17:00 +22°C° 0 mm 3 mps 668 mmHg 44%
    18:00 +21°C° 0 mm 3 mps 668 mmHg 45%
    19:00 +21°C° 0 mm 2 mps 668 mmHg 46%
    20:00 +21°C° 0 mm 1 mps 669 mmHg 46%
    21:00 +20°C° 0 mm 1 mps 668 mmHg 49%
    22:00 +20°C° 0 mm 1 mps 668 mmHg 52%
    23:00 +19°C° 0 mm 1 mps 667 mmHg 54%

    Day after tomorrow, 24 September, Tuesday

    Time Temperature Precipitation Wind Pressure Humidity
    00:00 +18°C° 0 mm 1 mps 667 mmHg 54%
    01:00 +17°C° 0 mm 2 mps 667 mmHg 55%
    02:00 +16°C° 0 mm 2 mps 666 mmHg 55%
    03:00 +16°C° 0 mm 2 mps 666 mmHg 56%
    04:00 +15°C° 0 mm 2 mps 666 mmHg 57%
    05:00 +15°C° 0 mm 1 mps 666 mmHg 57%
    06:00 +18°C° 0 mm 1 mps 666 mmHg 53%
    07:00 +19°C° 0 mm 1 mps 666 mmHg 48%
    08:00 +21°C° 0 mm 1 mps 667 mmHg 44%
    09:00 +22°C° 0 mm 1 mps 667 mmHg 42%
    10:00 +24°C° 0 mm 1 mps 667 mmHg 39%
    11:00 +25°C° 0 mm 2 mps 667 mmHg 37%
    12:00 +26°C° 0 mm 2 mps 666 mmHg 36%
    13:00 +26°C° 0 mm 2 mps 666 mmHg 36%
    14:00 +27°C° 0 mm 3 mps 666 mmHg 36%
    15:00 +26°C° 0 mm 3 mps 666 mmHg 38%
    16:00 +25°C° 0 mm 3 mps 666 mmHg 40%
    17:00 +24°C° 0 mm 3 mps 666 mmHg 43%
    18:00 +22°C° 0 mm 3 mps 666 mmHg 44%
    19:00 +21°C° 0 mm 2 mps 667 mmHg 45%
    20:00 +20°C° 0 mm 2 mps 667 mmHg 46%
    21:00 +20°C° 0 mm 2 mps 667 mmHg 45%
    22:00 +20°C° 0 mm 1 mps 666 mmHg 45%
    23:00 +20°C° 0 mm 1 mps 666 mmHg 45%

    25 September, Wednesday

    Time Temperature Precipitation Wind Pressure Humidity
    00:00 +19°C° 0 mm 1 mps 666 mmHg 46%
    01:00 +19°C° 0 mm 1 mps 666 mmHg 47%
    02:00 +18°C° 0 mm 1 mps 666 mmHg 47%
    03:00 +18°C° 0 mm 1 mps 665 mmHg 50%
    04:00 +16°C° 0 mm 1 mps 665 mmHg 52%
    05:00 +15°C° 0 mm 1 mps 665 mmHg 54%
    06:00 +18°C° 0 mm 1 mps 666 mmHg 49%
    07:00 +20°C° 0 mm 1 mps 666 mmHg 45%
    08:00 +22°C° 0 mm 1 mps 667 mmHg 40%
    09:00 +23°C° 0 mm 2 mps 667 mmHg 37%
    10:00 +24°C° 0 mm 2 mps 667 mmHg 35%
    11:00 +25°C° 0 mm 2 mps 667 mmHg 33%
    12:00 +26°C° 0 mm 2 mps 667 mmHg 31%
    13:00 +26°C° 0 mm 3 mps 667 mmHg 29%
    14:00 +27°C° 0 mm 4 mps 667 mmHg 27%
    15:00 +26°C° 0 mm 3 mps 667 mmHg 29%
    16:00 +25°C° 0 mm 2 mps 668 mmHg 31%
    17:00 +24°C° 0 mm 1 mps 668 mmHg 33%
    18:00 +23°C° 0 mm 1 mps 668 mmHg 34%
    19:00 +21°C° 0 mm 2 mps 668 mmHg 36%
    20:00 +20°C° 0 mm 2 mps 668 mmHg 38%
    21:00 +19°C° 0 mm 2 mps 668 mmHg 41%
    22:00 +19°C° 0 mm 1 mps 667 mmHg 43%
    23:00 +18°C° 0 mm 1 mps 667 mmHg 45%

    26 September, Thursday

    Time Temperature Precipitation Wind Pressure Humidity
    00:00 +18°C° 0 mm 1 mps 666 mmHg 47%
    01:00 +16°C° 0 mm 1 mps 666 mmHg 48%
    02:00 +16°C° 0 mm 1 mps 665 mmHg 50%
    03:00 +15°C° 0 mm 1 mps 665 mmHg 51%
    04:00 +15°C° 0 mm 1 mps 665 mmHg 53%
    05:00 +14°C° 0 mm 1 mps 665 mmHg 54%
    06:00 +16°C° 0 mm 1 mps 666 mmHg 48%
    07:00 +19°C° 0 mm 1 mps 666 mmHg 43%
    08:00 +20°C° 0 mm 2 mps 667 mmHg 37%
    09:00 +21°C° 0 mm 2 mps 667 mmHg 35%
    10:00 +24°C° 0 mm 3 mps 667 mmHg 33%
    11:00 +25°C° 0 mm 3 mps 668 mmHg 31%
    12:00 +25°C° 0 mm 4 mps 667 mmHg 30%
    13:00 +25°C° 0 mm 4 mps 667 mmHg 29%
    14:00 +26°C° 0 mm 5 mps 667 mmHg 28%
    15:00 +25°C° 0 mm 4 mps 667 mmHg 30%
    16:00 +23°C° 0 mm 4 mps 667 mmHg 31%
    17:00 +22°C° 0 mm 3 mps 667 mmHg 33%
    18:00 +21°C° 0 mm 3 mps 667 mmHg 35%
    19:00 +20°C° 0 mm 3 mps 667 mmHg 36%
    20:00 +19°C° 0 mm 2 mps 667 mmHg 38%
    21:00 +18°C° 0 mm 2 mps 667 mmHg 39%
    22:00 +18°C° 0 mm 2 mps 666 mmHg 39%
    23:00 +17°C° 0 mm 2 mps 666 mmHg 40%

    27 September, Friday

    Time Temperature Precipitation Wind Pressure Humidity
    00:00 +18°C° 0 mm 1 mps 665 mmHg 42%
    01:00 +16°C° 0 mm 1 mps 665 mmHg 44%
    02:00 +16°C° 0 mm 1 mps 665 mmHg 46%
    03:00 +15°C° 0 mm 1 mps 665 mmHg 47%
    04:00 +15°C° 0 mm 1 mps 665 mmHg 48%
    05:00 +15°C° 0 mm 1 mps 665 mmHg 49%
    06:00 +16°C° 0 mm 1 mps 665 mmHg 45%
    07:00 +19°C° 0 mm 1 mps 665 mmHg 41%
    08:00 +20°C° 0 mm 1 mps 666 mmHg 36%
    09:00 +20°C° 0 mm 2 mps 666 mmHg 34%
    10:00 +21°C° 0 mm 2 mps 666 mmHg 32%
    11:00 +22°C° 0 mm 3 mps 666 mmHg 31%
    12:00 +22°C° 0 mm 3 mps 666 mmHg 29%
    13:00 +24°C° 0 mm 3 mps 666 mmHg 28%
    14:00 +23°C° 0 mm 4 mps 666 mmHg 27%
    15:00 +22°C° 0 mm 3 mps 666 mmHg 30%
    16:00 +21°C° 0 mm 3 mps 666 mmHg 32%
    17:00 +20°C° 0 mm 3 mps 666 mmHg 34%
    18:00 +20°C° 0 mm 3 mps 666 mmHg 34%
    19:00 +19°C° 0 mm 3 mps 666 mmHg 34%
    20:00 +18°C° 0 mm 3 mps 666 mmHg 35%
    21:00 +18°C° 0 mm 3 mps 666 mmHg 38%
    22:00 +17°C° 0 mm 3 mps 666 mmHg 42%
    23:00 +17°C° 0 mm 3 mps 665 mmHg 46%
    Show more